Back to catalog

STARLINK-30410

AliveCommunicationsVLEO
NORAD 57841·PAYLOAD·🇺🇸 United States

Launched Sep 12, 2023 from Vandenberg Space Force Base

Loading…

Next Passes (next 24 hours)

TLE

FreshSource: CelesTrak SupGP

Epoch: Sep 14, 2026, 21:42 UTC

1 57841C 23141B   26257.90465278 -.00052891  00000+0 -17012-2 0  2575
2 57841  53.1582 123.7258 0001356  88.5579   7.1844 15.31721688    13

Track STARLINK-30410 in real time with AllMySat

Download on the App Store